GW0220 Weather Reports


time (UTC)temp
C
wind
direction
speed
KPH
gust
KPH
rain 1hr
cm
rain 24hr
cm
rain mn
cm
humidity
%
barometer
mb
20260510105126 17 195 3.2 8.0 0.00 0.00 0.00 84 1013.8
20260510104624 17 178 6.4 9.7 0.00 0.00 0.00 85 1013.8
20260510104121 16 189 4.8 9.7 0.00 0.00 0.00 86 1013.8
20260510103617 16 188 4.8 4.8 0.00 0.00 0.00 88 1013.9
20260510103113 16 204 3.2 3.2 0.00 0.00 0.00 87 1013.9
20260510102609 16 172 1.6 3.2 0.00 0.00 0.00 88 1014.0
20260510102105 17 95 0.0 3.2 0.00 0.00 0.00 87 1013.9
20260510101603 17 113 1.6 3.2 0.00 0.00 0.00 86 1014.0
20260510101101 17 148 0.0 1.6 0.00 0.00 0.00 85 1014.1
20260510100557 17 193 3.2 4.8 0.00 0.00 0.00 84 1013.8
20260510100054 17 165 4.8 9.7 0.00 0.00 0.00 83 1013.8
20260510095550 17 96 14.5 16.1 0.00 0.00 0.00 84 1013.7
20260510095050 17 131 3.2 4.8 0.00 0.00 0.00 84 1013.8
20260510094544 17 184 3.2 4.8 0.00 0.00 0.00 84 1013.9
20260510094040 17 184 4.8 9.7 0.00 0.00 0.00 83 1013.9
20260510093536 17 188 9.7 11.3 0.00 0.00 0.00 84 1013.8
20260510093033 17 151 11.3 16.1 0.00 0.00 0.00 85 1014.0
20260510092530 17 173 11.3 14.5 0.00 0.00 0.00 86 1013.9
20260510092030 17 168 8.0 12.9 0.00 0.00 0.00 87 1013.8
20260510091527 17 177 6.4 9.7 0.00 0.00 0.00 87 1013.3
20260510091022 17 178 11.3 17.7 0.00 0.00 0.00 87 1013.0
20260510090520 17 159 4.8 17.7 0.00 0.00 0.00 88 1012.6
20260510090015 17 152 16.1 17.7 0.00 0.00 0.00 89 1012.6
20260510085510 17 129 11.3 14.5 0.00 0.00 0.00 89 1012.8
20260510085006 17 178 14.5 17.7 0.00 0.00 0.00 88 1013.1
20260510084503 17 195 11.3 16.1 0.00 0.00 0.00 88 1013.3
20260510084000 17 169 6.4 11.3 0.00 0.00 0.00 87 1013.3
20260510083456 17 169 4.8 8.0 0.00 0.00 0.00 85 1013.7
20260510082951 17 141 6.4 11.3 0.00 0.00 0.00 86 1013.4
20260510082450 17 136 8.0 9.7 0.00 0.00 0.00 87 1013.3
20260510081949 17 172 3.2 8.0 0.00 0.00 0.00 87 1013.4
20260510081445 17 158 8.0 9.7 0.00 0.00 0.00 87 1013.4
20260510080941 17 163 8.0 14.5 0.00 0.00 0.00 86 1013.6
20260510080439 17 175 8.0 14.5 0.00 0.00 0.00 85 1013.8
20260510075937 17 205 9.7 17.7 0.00 0.00 0.00 85 1013.8
20260510075435 18 178 12.9 16.1 0.00 0.00 0.00 84 1014.3
20260510074931 18 189 14.5 20.9 0.00 0.00 0.00 82 1014.5
20260510074429 18 176 11.3 27.4 0.00 0.00 0.00 79 1014.4
20260510073925 18 178 14.5 24.1 0.00 0.00 0.00 77 1014.5
20260510073420 16 188 17.7 25.7 0.00 0.00 0.00 83 1014.4
20260510072917 16 164 6.4 9.7 0.00 0.00 0.00 88 1014.1
20260510072414 16 174 4.8 4.8 0.00 0.00 0.00 90 1013.9
20260510071909 16 223 4.8 4.8 0.00 0.00 0.00 90 1013.9
20260510071406 16 269 0.0 0.0 0.00 0.00 0.00 89 1013.7
20260510070905 16 289 0.0 0.0 0.00 0.00 0.00 87 1013.6
20260510070401 17 298 1.6 3.2 0.00 0.00 0.00 84 1013.7
20260510065856 16 341 0.0 1.6 0.00 0.00 0.00 81 1013.6
20260510065353 16 13 1.6 3.2 0.00 0.00 0.00 82 1013.4
20260510064850 16 359 3.2 3.2 0.00 0.00 0.00 84 1013.8
20260510064348 16 342 0.0 1.6 0.00 0.00 0.00 85 1013.6
20260510063844 16 317 0.0 0.0 0.00 0.00 0.00 85 1013.4
20260510063340 16 318 0.0 0.0 0.00 0.00 0.00 84 1013.8
20260510062837 16 321 0.0 0.0 0.00 0.00 0.00 85 1013.8
20260510062333 16 320 0.0 0.0 0.00 0.00 0.00 85 1013.7
20260510061828 16 310 0.0 0.0 0.00 0.00 0.00 85 1013.7
20260510061325 16 311 0.0 0.0 0.00 0.00 0.00 85 1013.8
20260510060821 16 313 0.0 0.0 0.00 0.00 0.00 83 1014.2
20260510060319 16 313 0.0 0.0 0.00 0.00 0.00 85 1014.2
20260510055815 16 312 0.0 0.0 0.00 0.00 0.00 86 1014.3
20260510055314 16 314 0.0 0.0 0.00 0.00 0.00 86 1014.3
20260510054813 16 316 0.0 0.0 0.00 0.00 0.00 87 1014.1
20260510054309 16 317 0.0 0.0 0.00 0.00 0.00 86 1014.0
20260510053804 16 321 0.0 1.6 0.00 0.00 0.00 85 1014.0
20260510053300 16 324 0.0 0.0 0.00 0.00 0.00 84 1013.7
20260510052756 17 328 0.0 1.6 0.00 0.00 0.00 84 1013.2
20260510052252 16 351 1.6 3.2 0.00 0.00 0.00 80 1013.6
20260510051748 16 359 1.6 3.2 0.00 0.00 0.00 85 1013.3
20260510051245 15 309 0.0 0.0 0.00 0.00 0.00 91 1013.3
20260510050742 15 299 0.0 0.0 0.00 0.00 0.00 92 1013.3
20260510050239 15 298 0.0 0.0 0.00 0.00 0.00 91 1013.3
20260510045736 15 298 0.0 0.0 0.00 0.03 0.03 91 1013.2
20260510045232 15 299 0.0 0.0 0.00 0.03 0.03 91 1013.2
20260510044729 15 300 0.0 0.0 0.00 0.03 0.03 91 1013.2
20260510044227 15 302 0.0 0.0 0.00 0.03 0.03 91 1013.0
20260510043722 15 302 0.0 0.0 0.00 0.03 0.03 90 1012.9
20260510043219 15 302 0.0 0.0 0.00 0.03 0.03 90 1012.8
20260510042716 15 304 0.0 0.0 0.00 0.03 0.03 90 1012.9
20260510042212 15 305 0.0 0.0 0.00 0.03 0.03 90 1012.7
20260510041709 15 305 0.0 0.0 0.00 0.03 0.03 90 1012.7
20260510041207 15 304 0.0 0.0 0.00 0.03 0.03 90 1012.6
20260510040703 15 304 0.0 0.0 0.00 0.03 0.03 89 1012.8
20260510040200 15 304 0.0 0.0 0.00 0.03 0.03 89 1012.9
20260510035655 15 304 0.0 0.0 0.00 0.03 0.03 89 1013.0
20260510035151 15 302 0.0 0.0 0.00 0.03 0.03 87 1013.2
20260510034648 15 302 0.0 0.0 0.00 0.03 0.03 87 1013.1
20260510034145 15 302 0.0 0.0 0.00 0.03 0.03 86 1013.0
20260510033641 15 302 0.0 0.0 0.00 0.03 0.03 85 1012.8
20260510033139 15 302 0.0 0.0 0.00 0.03 0.03 84 1012.7
20260510032635 15 303 0.0 0.0 0.00 0.03 0.03 82 1012.5
20260510032131 16 302 0.0 0.0 0.00 0.03 0.03 81 1012.4
20260510031626 16 302 0.0 0.0 0.00 0.03 0.03 80 1012.4
20260510031123 16 303 0.0 0.0 0.00 0.03 0.03 78 1012.3
20260510030617 17 305 0.0 0.0 0.00 0.03 0.03 76 1012.0
20260510030115 17 306 0.0 0.0 0.00 0.03 0.03 74 1011.8
20260510025612 17 304 0.0 0.0 0.00 0.03 0.03 75 1011.7
20260510025109 17 298 0.0 0.0 0.00 0.03 0.03 77 1011.7
20260510024606 17 294 0.0 0.0 0.00 0.03 0.03 75 1011.7
20260510024103 17 292 0.0 0.0 0.00 0.03 0.03 77 1011.7
20260510023559 17 288 0.0 0.0 0.00 0.03 0.03 77 1011.5
20260510023056 17 285 0.0 0.0 0.00 0.03 0.03 77 1011.4
20260510022555 17 282 0.0 0.0 0.00 0.03 0.03 75 1011.3
20260510022050 17 282 0.0 0.0 0.00 0.03 0.03 73 1011.2
20260510021546 17 282 0.0 0.0 0.00 0.03 0.03 73 1011.1
20260510021044 18 281 0.0 0.0 0.00 0.03 0.03 72 1011.2
20260510020538 18 281 0.0 0.0 0.00 0.03 0.03 71 1011.0
20260510020034 18 280 0.0 0.0 0.00 0.03 0.03 70 1011.1
20260510015530 18 279 0.0 0.0 0.00 0.03 0.03 67 1010.9
20260510015026 18 275 0.0 0.0 0.00 0.03 0.03 65 1010.9
20260510014523 19 273 0.0 0.0 0.00 0.03 0.03 66 1010.9
20260510014020 20 267 0.0 0.0 0.00 0.03 0.03 61 1010.8
20260510013514 20 261 0.0 0.0 0.00 0.03 0.03 60 1010.6
20260510013010 21 247 0.0 0.0 0.00 0.03 0.03 61 1010.5
20260510012505 21 225 0.0 0.0 0.00 0.03 0.03 55 1010.5
20260510012001 22 209 0.0 0.0 0.00 0.03 0.03 55 1010.5
20260510011455 22 177 0.0 1.6 0.00 0.03 0.03 55 1010.1
20260510010951 22 154 0.0 1.6 0.00 0.03 0.03 52 1010.3
20260510010443 23 154 1.6 3.2 0.00 0.03 0.03 52 1010.2
20260510005940 23 154 1.6 3.2 0.00 0.03 0.03 51 1010.1
20260510005436 23 161 0.0 0.0 0.00 0.03 0.03 52 1010.0
20260510004933 23 157 3.2 4.8 0.00 0.03 0.03 52 1010.1
20260510004430 23 141 4.8 4.8 0.00 0.03 0.03 50 1009.9
20260510003928 23 184 4.8 8.0 0.00 0.03 0.03 51 1009.9
20260510003425 23 106 3.2 4.8 0.00 0.03 0.03 50 1010.0
20260510002924 24 157 1.6 4.8 0.00 0.03 0.03 51 1009.9
20260510002416 24 124 0.0 3.2 0.00 0.03 0.03 52 1009.9
20260510001912 25 155 3.2 8.0 0.00 0.03 0.03 51 1009.9
20260510001410 25 149 4.8 9.7 0.00 0.03 0.03 50 1010.0
20260510000907 25 166 8.0 11.3 0.00 0.03 0.03 49 1009.7
20260510000404 25 182 9.7 12.9 0.00 0.03 0.03 48 1010.1
20260509235900 25 155 4.8 9.7 0.00 0.03 0.03 48 1010.0
20260509235356 25 161 8.0 11.3 0.00 0.03 0.03 48 1010.1
20260509234852 26 178 6.4 8.0 0.00 0.03 0.03 48 1010.1
20260509234350 26 156 8.0 11.3 0.00 0.03 0.03 48 1010.0
20260509233848 26 175 4.8 8.0 0.00 0.03 0.03 45 1010.0
20260509233345 27 158 4.8 4.8 0.00 0.03 0.03 44 1009.9
20260509232840 27 179 6.4 8.0 0.00 0.03 0.03 42 1010.1
20260509232339 27 177 6.4 9.7 0.00 0.03 0.03 44 1009.8
20260509231834 26 151 3.2 9.7 0.00 0.03 0.03 44 1010.0
20260509231332 27 173 0.0 8.0 0.00 0.03 0.03 43 1010.3
20260509230829 28 166 6.4 9.7 0.00 0.03 0.03 44 1010.1
20260509230326 28 236 0.0 3.2 0.00 0.03 0.03 38 1009.9
20260509225821 28 303 0.0 0.0 0.00 0.03 0.03 35 1010.1
20260509225318 28 301 0.0 0.0 0.00 0.03 0.03 33 1010.1
20260509224814 28 304 0.0 1.6 0.00 0.03 0.03 34 1010.1
20260509224310 28 59 1.6 3.2 0.00 0.03 0.03 37 1010.1
20260509223807 28 308 0.0 0.0 0.00 0.03 0.03 37 1010.3
20260509223304 27 157 3.2 8.0 0.00 0.03 0.03 36 1010.2
20260509222801 27 17 0.0 3.2 0.00 0.03 0.03 34 1010.5
20260509222256 28 66 1.6 3.2 0.00 0.03 0.03 37 1010.5
20260509221752 28 89 3.2 3.2 0.00 0.03 0.03 36 1010.3
20260509221249 29 259 0.0 0.0 0.00 0.03 0.03 34 1010.3
20260509220745 28 291 0.0 0.0 0.00 0.03 0.03 32 1010.2
20260509220242 28 341 3.2 4.8 0.00 0.03 0.03 38 1010.3
20260509215737 28 327 1.6 3.2 0.00 0.03 0.03 32 1010.1
20260509215234 28 192 3.2 4.8 0.00 0.03 0.03 31 1010.2
20260509214731 28 301 0.0 0.0 0.00 0.03 0.03 32 1010.1
20260509214228 27 288 0.0 3.2 0.00 0.03 0.03 31 1010.6
20260509213725 28 307 0.0 1.6 0.00 0.03 0.03 30 1010.6
20260509213220 27 330 0.0 1.6 0.00 0.03 0.03 31 1010.5
20260509212718 27 313 0.0 9.7 0.00 0.03 0.03 37 1010.3
20260509212215 27 51 6.4 8.0 0.00 0.03 0.03 32 1010.3
20260509211711 28 45 1.6 3.2 0.00 0.03 0.03 32 1010.6
20260509211208 28 271 0.0 0.0 0.00 0.03 0.03 36 1010.6
20260509210704 27 22 4.8 8.0 0.00 0.03 0.03 34 1010.7
20260509210202 28 108 1.6 8.0 0.00 0.03 0.03 33 1010.8
20260509205702 28 352 0.0 1.6 0.00 0.03 0.03 32 1010.8
20260509205201 28 305 0.0 3.2 0.00 0.03 0.03 31 1010.9
20260509204657 28 300 3.2 4.8 0.00 0.03 0.03 37 1010.9
20260509204154 27 296 0.0 3.2 0.00 0.03 0.03 32 1010.9
20260509203650 27 96 1.6 4.8 0.00 0.03 0.03 32 1011.0
20260509203148 27 117 8.0 9.7 0.00 0.03 0.03 33 1011.0
20260509202643 27 99 3.2 4.8 0.00 0.03 0.03 32 1010.9
20260509202138 27 171 3.2 3.2 0.00 0.03 0.03 40 1011.0
20260509201634 27 269 1.6 8.0 0.00 0.03 0.03 36 1011.1
20260509201132 27 305 6.4 8.0 0.00 0.03 0.03 36 1011.2
20260509200627 27 137 4.8 8.0 0.00 0.03 0.03 39 1011.5
20260509200123 27 334 0.0 8.0 0.00 0.03 0.03 37 1011.3
20260509195619 27 222 4.8 4.8 0.00 0.03 0.03 40 1011.3
20260509195114 27 304 0.0 3.2 0.00 0.03 0.03 42 1011.4
20260509194613 27 228 0.0 9.7 0.00 0.03 0.03 37 1011.5
20260509194111 27 102 4.8 8.0 0.00 0.03 0.03 46 1011.5
20260509193607 27 96 3.2 9.7 0.00 0.03 0.03 41 1011.5
20260509193103 27 240 1.6 4.8 0.00 0.03 0.03 40 1011.6
20260509192600 26 161 8.0 9.7 0.00 0.03 0.03 40 1011.5
20260509192054 27 115 6.4 9.7 0.00 0.03 0.03 41 1011.4
20260509191549 27 307 0.0 1.6 0.00 0.03 0.03 52 1011.3
20260509191045 27 162 4.8 8.0 0.00 0.03 0.03 38 1011.7
20260509190542 27 156 6.4 9.7 0.00 0.03 0.03 42 1011.6
20260509190040 27 266 0.0 1.6 0.00 0.03 0.03 46 1011.5
20260509185537 26 257 1.6 3.2 0.00 0.03 0.03 42 1011.5
20260509185033 26 165 4.8 14.5 0.00 0.03 0.03 41 1011.6
20260509184532 27 157 8.0 11.3 0.00 0.03 0.03 42 1011.6
20260509184028 27 195 0.0 3.2 0.00 0.03 0.03 44 1011.7
20260509183523 26 12 0.0 3.2 0.00 0.03 0.03 39 1011.6
20260509183019 26 267 3.2 4.8 0.00 0.03 0.03 39 1011.7
20260509182516 26 214 0.0 1.6 0.00 0.03 0.03 41 1011.9
20260509182013 26 130 6.4 8.0 0.00 0.03 0.03 45 1011.8
20260509181511 26 126 11.3 11.3 0.00 0.03 0.03 44 1011.9
20260509181010 26 156 4.8 9.7 0.00 0.03 0.03 41 1011.8
20260509180503 27 181 1.6 8.0 0.00 0.03 0.03 38 1011.8
20260509180002 26 172 4.8 4.8 0.00 0.03 0.03 40 1012.1
20260509175456 26 169 4.8 8.0 0.00 0.03 0.03 40 1011.9
20260509174954 26 112 3.2 8.0 0.00 0.03 0.03 37 1012.0
20260509174450 26 274 0.0 3.2 0.00 0.03 0.03 44 1012.0
20260509173945 26 156 4.8 8.0 0.00 0.03 0.03 50 1012.1
20260509173445 26 189 4.8 8.0 0.00 0.03 0.03 45 1012.1
20260509172942 25 62 1.6 9.7 0.00 0.03 0.03 41 1012.1
20260509172439 25 298 1.6 3.2 0.00 0.03 0.03 58 1012.3
20260509171934 25 320 1.6 9.7 0.00 0.03 0.03 58 1012.3
20260509171431 25 318 0.0 4.8 0.00 0.03 0.03 61 1012.2
20260509170927 25 303 3.2 4.8 0.00 0.03 0.03 60 1012.3
20260509170423 25 213 0.0 4.8 0.00 0.03 0.03 64 1012.2
20260509165919 25 307 0.0 3.2 0.00 0.03 0.03 64 1012.4
20260509165413 25 50 4.8 8.0 0.00 0.03 0.03 61 1012.5
20260509164909 25 359 0.0 3.2 0.00 0.03 0.03 65 1012.4
20260509164405 25 306 0.0 1.6 0.00 0.03 0.03 65 1012.5
20260509163901 24 299 0.0 4.8 0.00 0.03 0.03 68 1012.5
20260509163358 24 317 0.0 0.0 0.00 0.03 0.03 70 1012.3
20260509162857 24 265 0.0 3.2 0.00 0.03 0.03 67 1012.2
20260509162356 23 244 1.6 3.2 0.00 0.03 0.03 69 1012.4
20260509161852 23 244 3.2 4.8 0.00 0.03 0.03 71 1012.4
20260509161348 23 271 1.6 8.0 0.00 0.03 0.03 73 1012.2
20260509160844 24 269 3.2 4.8 0.00 0.03 0.03 72 1012.4
20260509160340 23 259 1.6 4.8 0.00 0.03 0.03 72 1012.5
20260509155835 23 226 0.0 3.2 0.00 0.03 0.03 75 1012.4
20260509155332 22 269 0.0 3.2 0.00 0.03 0.03 76 1012.6
20260509154828 22 223 1.6 3.2 0.00 0.03 0.03 78 1012.5
20260509154325 22 289 6.4 9.7 0.00 0.03 0.03 80 1012.6
20260509153822 22 281 1.6 4.8 0.00 0.03 0.03 80 1012.6
20260509153318 22 264 4.8 4.8 0.00 0.03 0.03 80 1012.6
20260509152815 23 150 6.4 8.0 0.00 0.03 0.03 79 1012.6
20260509152311 23 183 1.6 3.2 0.00 0.03 0.03 75 1012.4
20260509151809 23 212 4.8 4.8 0.00 0.03 0.03 80 1012.5
20260509151305 22 156 3.2 4.8 0.00 0.03 0.03 77 1012.4
20260509150804 22 239 3.2 4.8 0.00 0.03 0.03 77 1012.3
20260509150301 22 199 3.2 4.8 0.00 0.03 0.03 79 1012.4
20260509145758 22 277 0.0 3.2 0.00 0.03 0.03 83 1012.4
20260509145258 21 239 3.2 8.0 0.00 0.03 0.03 84 1012.3
20260509144754 21 286 0.0 1.6 0.00 0.03 0.03 84 1012.5
20260509144251 21 254 1.6 4.8 0.00 0.03 0.03 84 1012.5
20260509143748 20 326 0.0 3.2 0.00 0.03 0.03 86 1012.4
20260509143246 20 235 3.2 3.2 0.00 0.03 0.03 85 1012.2
20260509142741 20 260 0.0 1.6 0.00 0.03 0.03 86 1012.3
20260509142238 20 313 0.0 1.6 0.00 0.03 0.03 86 1012.3
20260509141734 20 283 1.6 4.8 0.00 0.03 0.03 85 1012.3
20260509141231 20 245 0.0 1.6 0.00 0.03 0.03 85 1012.3
20260509140728 20 309 0.0 0.0 0.00 0.03 0.03 87 1012.2
20260509140225 19 343 1.6 3.2 0.00 0.03 0.03 91 1012.2
20260509135722 18 323 0.0 1.6 0.00 0.03 0.03 94 1012.1
20260509135220 18 263 0.0 0.0 0.00 0.03 0.03 97 1012.2
20260509134717 18 260 0.0 0.0 0.00 0.03 0.03 98 1012.2
20260509134214 17 253 1.6 3.2 0.00 0.03 0.03 99 1012.1
20260509133711 17 276 1.6 3.2 0.00 0.03 0.03 99 1012.0
20260509133208 16 324 0.0 1.6 0.00 0.03 0.03 99 1012.0
20260509132707 16 25 0.0 1.6 0.00 0.03 0.03 99 1011.9
20260509132205 16 19 1.6 3.2 0.00 0.03 0.03 99 1011.7
20260509131701 16 348 1.6 1.6 0.00 0.03 0.03 99 1011.7
20260509131158 16 318 1.6 1.6 0.00 0.03 0.03 99 1011.8
20260509130653 16 312 0.0 1.6 0.00 0.03 0.03 99 1011.9
20260509130150 15 313 0.0 0.0 0.00 0.03 0.03 99 1012.0
20260509125646 15 300 0.0 0.0 0.00 0.03 0.03 99 1011.7
20260509125143 15 294 0.0 0.0 0.00 0.03 0.03 99 1011.9
20260509124640 14 293 0.0 0.0 0.00 0.03 0.03 99 1011.6
20260509124137 13 293 0.0 0.0 0.00 0.03 0.03 99 1011.8
20260509123635 14 295 0.0 0.0 0.00 0.03 0.03 99 1011.6
20260509123131 14 295 0.0 0.0 0.00 0.03 0.03 99 1011.4
20260509122627 13 295 0.0 0.0 0.00 0.03 0.03 99 1011.4
20260509122124 12 296 0.0 0.0 0.00 0.03 0.03 99 1011.3
20260509121621 11 296 0.0 0.0 0.00 0.03 0.03 99 1011.5
20260509121119 10 296 0.0 0.0 0.00 0.03 0.03 99 1011.4
20260509120616 10 296 0.0 0.0 0.00 0.03 0.03 99 1011.5
20260509120115 10 296 0.0 0.0 0.00 0.03 0.03 99 1011.4
20260509115612 10 296 0.0 0.0 0.00 0.03 0.03 99 1011.2
20260509115109 10 296 0.0 0.0 0.00 0.03 0.03 99 1011.0
20260509114607 10 296 0.0 0.0 0.00 0.03 0.03 99 1011.0
20260509114106 10 296 0.0 0.0 0.00 0.03 0.03 99 1011.0
20260509113603 10 296 0.0 0.0 0.00 0.03 0.03 99 1010.9
20260509113101 10 295 0.0 0.0 0.00 0.03 0.03 99 1010.8
20260509112557 10 295 0.0 0.0 0.00 0.03 0.03 99 1010.9
20260509112054 10 296 0.0 0.0 0.00 0.03 0.03 99 1011.0
20260509111551 10 296 0.0 0.0 0.00 0.03 0.03 99 1010.9
20260509111048 10 296 0.0 0.0 0.00 0.03 0.03 99 1010.7
20260509110545 10 296 0.0 0.0 0.00 0.03 0.03 99 1010.9
20260509110042 10 296 0.0 0.0 0.00 0.03 0.03 99 1010.7